Starlink 32866

operational
NORAD ID: 62858 Int'l Des: 2025-022 Owner: SPXS Country: US Constellation: starlink
LEOCIRCULAR

Über Starlink 32866

Beschreibung wird geladen...

Live-Position

3D-Globus wird geladen...

Nächste Überflüge

Höhenverlauf

Altitude vs Time

uPlot chart will show altitude changes over time

Zweizeiliger Elementsatz

1 62858U 25022E 25352.69793440 .00029744 00000-0 10120-2 0 9991
2 62858 53.1594 145.5456 0000563 74.9546 285.1517 15.30210356 49500
Epoch: 18. Dez. 2025 • Age: 15 hours

Aktueller Status

Höhe 485.8 km
Geschwindigkeit 7.62 km/s
Subsatellitenpunkt -33.23°S, 146.25°E
Startdatum 2. Feb. 2025
Alter 0.8 years
Typ internet

Technische Details

Klassifizierung Payload
Masse 730.00 kg
Trockenmasse 700.00 kg
Gesamtmasse 730.00 kg
Länge 0.30 m
Durchmesser 4.10 m
Spannweite 29.00 m
Form Box + pan
Hersteller SPXS
Bus-Typ Starlink V2M
Phasenstatus In Orbit
Besitzer/Staat SPXS/US

Große Konstellationen

Loading constellations...